EN

Hourly Weather Ostrowina

Today, 18 January, Monday

Time Temperature Precipitation Wind Pressure Humidity
00:00 -15°C° 0 mm 1 mps 750 mmHg 93%
01:00 -15°C° 0 mm 1 mps 750 mmHg 93%
02:00 -15°C° 0 mm 1 mps 749 mmHg 93%
03:00 -15°C° 0 mm 1 mps 749 mmHg 92%
04:00 -15°C° 0 mm 1 mps 749 mmHg 92%
05:00 -14°C° 0 mm 1 mps 749 mmHg 91%
06:00 -14°C° 0 mm 1 mps 749 mmHg 91%
07:00 -16°C° 0 mm 2 mps 748 mmHg 91%
08:00 -15°C° 0 mm 2 mps 748 mmHg 90%
09:00 -14°C° 0 mm 2 mps 749 mmHg 89%
10:00 -13°C° 0 mm 2 mps 749 mmHg 89%
11:00 -12°C° 0 mm 2 mps 748 mmHg 88%
12:00 -10°C° 0 mm 2 mps 748 mmHg 87%
13:00 -9°C° 0 mm 2 mps 748 mmHg 86%
14:00 -9°C° 0 mm 2 mps 748 mmHg 87%
15:00 -9°C° 0 mm 2 mps 747 mmHg 88%
16:00 -9°C° 0 mm 2 mps 747 mmHg 89%
17:00 -8°C° 0.2 mm 2 mps 747 mmHg 91%
18:00 -8°C° 0.2 mm 2 mps 747 mmHg 94%
19:00 -7°C° 0.2 mm 2 mps 747 mmHg 96%
20:00 -7°C° 0.4 mm 3 mps 747 mmHg 96%
21:00 -6°C° 0.4 mm 3 mps 746 mmHg 97%
22:00 -5°C° 0.4 mm 3 mps 746 mmHg 97%
23:00 -4°C° 0.6 mm 4 mps 746 mmHg 97%

Tomorrow, 19 January, Tuesday

Time Temperature Precipitation Wind Pressure Humidity
00:00 -3°C° 0.6 mm 4 mps 746 mmHg 97%
01:00 -4°C° 0.6 mm 5 mps 745 mmHg 96%
02:00 -4°C° 0.3 mm 5 mps 745 mmHg 97%
03:00 -2°C° 0.3 mm 5 mps 745 mmHg 97%
04:00 -2°C° 0.3 mm 5 mps 744 mmHg 97%
05:00 -2°C° 0.2 mm 4 mps 744 mmHg 97%
06:00 -2°C° 0.2 mm 4 mps 744 mmHg 97%
07:00 -2°C° 0.2 mm 4 mps 744 mmHg 97%
08:00 -2°C° 0 mm 4 mps 744 mmHg 96%
09:00 -2°C° 0 mm 4 mps 743 mmHg 95%
10:00 -2°C° 0 mm 4 mps 743 mmHg 95%
11:00 -2°C° 0 mm 4 mps 743 mmHg 93%
12:00 -1°C° 0 mm 4 mps 742 mmHg 92%
13:00 -1°C° 0 mm 4 mps 742 mmHg 90%
14:00 -1°C° 0 mm 5 mps 741 mmHg 92%
15:00 -2°C° 0 mm 5 mps 741 mmHg 93%
16:00 -2°C° 0 mm 5 mps 740 mmHg 95%
17:00 -2°C° 0.2 mm 5 mps 740 mmHg 96%
18:00 -2°C° 0.2 mm 5 mps 739 mmHg 97%
19:00 -2°C° 0.2 mm 5 mps 739 mmHg 97%
20:00 -2°C° 0.6 mm 5 mps 739 mmHg 98%
21:00 -1°C° 0.6 mm 5 mps 738 mmHg 98%
22:00 -1°C° 0.6 mm 5 mps 738 mmHg 98%
23:00 -1°C° 0.4 mm 5 mps 738 mmHg 98%

Day after tomorrow, 20 January, Wednesday

Time Temperature Precipitation Wind Pressure Humidity
00:00 0°C° 0.4 mm 5 mps 738 mmHg 98%
01:00 0°C° 0.4 mm 5 mps 738 mmHg 97%
02:00 0°C° 0 mm 5 mps 738 mmHg 96%
03:00 0°C° 0 mm 4 mps 738 mmHg 95%
04:00 0°C° 0 mm 4 mps 738 mmHg 94%
05:00 0°C° 0 mm 4 mps 738 mmHg 93%
06:00 0°C° 0 mm 4 mps 738 mmHg 92%
07:00 -1°C° 0 mm 4 mps 739 mmHg 91%
08:00 0°C° 0 mm 4 mps 739 mmHg 91%
09:00 0°C° 0 mm 5 mps 739 mmHg 91%
10:00 0°C° 0 mm 5 mps 739 mmHg 91%
11:00 0°C° 0 mm 5 mps 739 mmHg 89%
12:00 0°C° 0 mm 5 mps 739 mmHg 87%
13:00 +1°C° 0 mm 5 mps 739 mmHg 84%
14:00 +1°C° 0 mm 5 mps 738 mmHg 83%
15:00 0°C° 0 mm 5 mps 738 mmHg 81%
16:00 0°C° 0 mm 5 mps 738 mmHg 80%
17:00 0°C° 0 mm 5 mps 738 mmHg 79%
18:00 0°C° 0 mm 4 mps 738 mmHg 79%
19:00 0°C° 0 mm 4 mps 739 mmHg 79%
20:00 -1°C° 0 mm 4 mps 739 mmHg 78%
21:00 -1°C° 0 mm 4 mps 738 mmHg 78%
22:00 -1°C° 0 mm 4 mps 738 mmHg 78%
23:00 -1°C° 0 mm 4 mps 738 mmHg 79%

21 January, Thursday

Time Temperature Precipitation Wind Pressure Humidity
00:00 -1°C° 0 mm 4 mps 738 mmHg 79%
01:00 -1°C° 0 mm 4 mps 738 mmHg 79%
02:00 -1°C° 0 mm 4 mps 738 mmHg 80%
03:00 -1°C° 0 mm 4 mps 738 mmHg 81%
04:00 -1°C° 0 mm 4 mps 737 mmHg 82%
05:00 -1°C° 0 mm 4 mps 737 mmHg 83%
06:00 -1°C° 0 mm 4 mps 737 mmHg 84%
07:00 -1°C° 0 mm 5 mps 737 mmHg 85%
08:00 -1°C° 0 mm 5 mps 737 mmHg 87%
09:00 0°C° 0 mm 5 mps 737 mmHg 88%
10:00 -1°C° 0 mm 6 mps 736 mmHg 90%
11:00 +1°C° 0 mm 5 mps 736 mmHg 92%
12:00 +1°C° 0 mm 4 mps 736 mmHg 94%
13:00 +1°C° 0 mm 4 mps 736 mmHg 96%
14:00 +2°C° 0 mm 3 mps 735 mmHg 96%
15:00 +1°C° 0 mm 3 mps 735 mmHg 95%
16:00 +1°C° 0 mm 3 mps 735 mmHg 94%
17:00 0°C° 0 mm 3 mps 735 mmHg 93%
18:00 0°C° 0 mm 3 mps 735 mmHg 92%
19:00 -1°C° 0 mm 3 mps 735 mmHg 91%
20:00 -1°C° 0 mm 4 mps 735 mmHg 90%
21:00 -1°C° 0 mm 4 mps 735 mmHg 90%
22:00 -1°C° 0 mm 4 mps 735 mmHg 89%
23:00 -1°C° 0 mm 4 mps 735 mmHg 87%

22 January, Friday

Time Temperature Precipitation Wind Pressure Humidity
00:00 0°C° 0 mm 3 mps 735 mmHg 86%
01:00 0°C° 0 mm 3 mps 735 mmHg 84%
02:00 0°C° 0 mm 3 mps 735 mmHg 84%
03:00 0°C° 0 mm 3 mps 734 mmHg 85%
04:00 0°C° 0 mm 3 mps 734 mmHg 86%
05:00 0°C° 0 mm 3 mps 733 mmHg 87%
06:00 +1°C° 0 mm 3 mps 733 mmHg 88%
07:00 +1°C° 0 mm 3 mps 733 mmHg 89%
08:00 0°C° 0 mm 4 mps 732 mmHg 91%
09:00 0°C° 0 mm 4 mps 732 mmHg 93%
10:00 +1°C° 0 mm 4 mps 732 mmHg 95%
11:00 +2°C° 0 mm 3 mps 732 mmHg 96%
12:00 +2°C° 0 mm 3 mps 731 mmHg 96%
13:00 +3°C° 0 mm 2 mps 731 mmHg 97%
14:00 +3°C° 0 mm 2 mps 731 mmHg 95%
15:00 +2°C° 0 mm 2 mps 731 mmHg 94%
16:00 +2°C° 0 mm 2 mps 731 mmHg 92%
17:00 +2°C° 0 mm 2 mps 731 mmHg 92%
18:00 +1°C° 0 mm 2 mps 731 mmHg 91%
19:00 +1°C° 0 mm 2 mps 731 mmHg 91%
20:00 0°C° 0 mm 3 mps 732 mmHg 93%
21:00 0°C° 0 mm 4 mps 733 mmHg 94%
22:00 0°C° 0 mm 4 mps 733 mmHg 95%
23:00 0°C° 0 mm 4 mps 733 mmHg 95%

23 January, Saturday

Time Temperature Precipitation Wind Pressure Humidity
00:00 0°C° 0 mm 3 mps 734 mmHg 94%
01:00 0°C° 0 mm 3 mps 734 mmHg 93%
02:00 -1°C° 0 mm 3 mps 734 mmHg 93%
03:00 -1°C° 0 mm 3 mps 735 mmHg 92%
04:00 -1°C° 0 mm 2 mps 735 mmHg 92%
05:00 -1°C° 0 mm 2 mps 735 mmHg 91%
06:00 -1°C° 0 mm 2 mps 736 mmHg 91%
07:00 -1°C° 0 mm 2 mps 736 mmHg 90%
08:00 -1°C° 0 mm 2 mps 736 mmHg 89%
09:00 -1°C° 0 mm 2 mps 736 mmHg 89%
10:00 +1°C° 0 mm 2 mps 737 mmHg 88%
11:00 +1°C° 0 mm 2 mps 737 mmHg 88%
12:00 +1°C° 0 mm 2 mps 737 mmHg 88%
13:00 +2°C° 0 mm 2 mps 736 mmHg 88%
14:00 +2°C° 0 mm 2 mps 736 mmHg 88%
15:00 +1°C° 0 mm 2 mps 737 mmHg 88%
16:00 +1°C° 0 mm 2 mps 737 mmHg 87%
17:00 +1°C° 0 mm 2 mps 737 mmHg 89%
18:00 +2°C° 0 mm 1 mps 737 mmHg 91%
19:00 +1°C° 0 mm 1 mps 737 mmHg 92%
20:00 +1°C° 0 mm 1 mps 737 mmHg 93%
21:00 -1°C° 0 mm 2 mps 737 mmHg 94%
22:00 -1°C° 0 mm 2 mps 737 mmHg 94%
23:00 -1°C° 0 mm 2 mps 737 mmHg 94%
Show more

We Need Your Consent

Meteoprog and our Service Providers may store and access personal data such as cookies, device identifiers or other similar technologies on your device and process such data to personalise content and ads, as well as provide social media features and to analyse the traffic.

  • Store and/or access information on your device

    Cookies, device identifiers or other information can be stored or accessed on your device for the purposes indicated above.

  • Personalised ads and content, ad and content measurement, audience insights, and products development

    Ads and content can be personalised based on a profile. More data can be added to better personalise ads and content. Ad and content performance can be measured. Insights about the audience who saw the ads and content can be derived. Such data can be used to develop or improve user’s experience, systems and software.

By clicking ‘I Agree’ you will allow the use of indicated cookies, device identifiers, web beacons or other similar technologies. Your settings can be changed in the browser on your device.

For certain purposes, legitimate interests may be relied on, rather than consent. You can read more about this in our Privacy and Cookie Policy.